Regional Weather Roundup
Issued by NWS

Home | Current Version | Previous Version | Text Only | Print | Product List | Glossary Off
Versions: 1 2 3 4 5 6 7 8 9 10 11 12 13 14 15 16 17 18 19 20 21 22 23 24 25 26 27 28 29 30 31 32 33 34 35 36 37 38 39 40 41 42 43 44 45 46 47 48 49 50

000
ASUS43 KLOT 210512
RWRIL

ILLINOIS REGIONAL WEATHER ROUNDUP
NATIONAL WEATHER SERVICE CHICAGO/ROMEOVILLE IL
1200 AM CDT TUE APR 21 2015

NOTE: "FAIR" INDICATES FEW OR NO CLOUDS BELOW 12,000 FEET WITH NO
SIGNIFICANT WEATHER AND/OR OBSTRUCTIONS TO VISIBILITY.

* THESE STATIONS ARE NOT UNDER NWS QUALITY CONTROL. THEY ALSO MAY NOT
  REPORT WEATHER SUCH AS PRECIPITATION OR FOG.

ILZ001-002-007-009-015-016-024-210600-
NORTHWEST ILLINOIS

CITY           SKY/WX    TMP DP  RH WIND       PRES   REMARKS
MOLINE         CLEAR     39  33  79 W5        29.69R
STERLING*      PTCLDY    41  34  75 W8        29.66S
SAVANNA*       CLOUDY    44  32  63 W13       29.63F
$$

ILZ003-004-008-010-011-017-018-210600-
NORTH CENTRAL ILLINOIS

CITY           SKY/WX    TMP DP  RH WIND       PRES   REMARKS
ROCKFORD       PTCLDY    42  31  64 W12       29.62F
FREEPORT*      MOCLDY    38  32  77 W9        29.62S WCI  32
ROCHELLE*      CLOUDY    39  34  83 SW13      29.63F WCI  32
DE KALB*       PTCLDY    38  32  77 W14G21    29.62F WCI  30
PERU*          CLOUDY    43  35  74 W8        29.67F
$$

ILZ005-006-012>014-019>023-210600-
NORTHEAST ILLINOIS

CITY           SKY/WX    TMP DP  RH WIND       PRES   REMARKS
CHICAGO-OHARE  PTCLDY    42  33  70 W14       29.61S
CHICAGO-MIDWAY LGT RAIN  44  35  70 SW12      29.63S
AURORA         CLOUDY    41  33  73 SW10      29.64S
LANSING*       CLOUDY    43  32  66 SW9       29.66R
JOLIET*        MOCLDY    43  35  72 SW10      29.65F
WAUKEGAN       CLOUDY    41  31  67 VRB7      29.57F
DUPAGE AIRPORT PTCLDY    40  34  79 SW9       29.61F
KANKAKEE*      CLEAR     38  36  89 SW5       29.69R WCI  35
WHEELING       PTCLDY    42  33  70 W10       29.61S
MORRIS*        MOCLDY    42  34  75 W9        29.65F
ROMEOVILLE*    MOCLDY    42  34  73 W13       29.64S
NORTHERLY ISL    N/A     45  33  63 W10         N/A
$$

LMZ740>746-210600-
SOUTHERN LAKE MICHIGAN

STATION/POSITION SKY/WX   TEMP    WIND        PRES    VSBY  WAVE
                          AIR SEA DIR/SP/G                  HT/PER
                          (F)     (DEG/KT/KT) (MB)    (MI)  (FT/S)
HARRISON CRIB              45     240/ 14/ 22   N/A
BURNHAM HARBOR             45     250/  8/ 14   N/A
CALUMET HARBOR             44     230/  9/ 13   N/A
BURNS HARBOR               46     230/ 17/ 20 1004.4S
MICHIGAN CITY              45     200/ 17/ 20   N/A
MICHIGAN CITY 6N           45 45  250/ 16/ 19   N/A           4/ 5
$$

ILZ025>027-034>036-040-047-049-050-058-095>099-210600-
WEST-CENTRAL ILLINOIS

CITY           SKY/WX    TMP DP  RH WIND       PRES   REMARKS
QUINCY         CLEAR     43  28  55 SW9       29.76S
GALESBURG*     CLEAR     42  30  62 SW8       29.69S
MACOMB*        CLEAR     41  32  70 W9        29.75R
JACKSONVILLE*  CLEAR     46  34  63 SW9       29.77S
PITTSFIELD*    CLEAR     46  31  55 SW8       29.78S
$$

ILZ028>032-037-038-041>044-048-051>054-059>061-210600-
CENTRAL ILLINOIS

CITY           SKY/WX    TMP DP  RH WIND       PRES   REMARKS
PONTIAC        CLEAR     41  36  80 SW9       29.68S
BLOOMINGTON    CLEAR     42  35  76 SW12      29.71F
DECATUR        CLEAR     45  34  65 SW12      29.75F
PEORIA         CLEAR     46  31  55 SW12      29.70S
LACON*         CLEAR     41  32  71 NW8       29.69R
LINCOLN*       CLEAR     45  34  66 SW5       29.73S
SPRINGFIELD    CLEAR     47  32  56 SW10      29.76S
TAYLORVILLE    CLEAR     45  34  65 SW14      29.77F
$$

ILZ033-039-045-046-055>057-062-063-210600-
EAST-CENTRAL ILLINOIS

CITY           SKY/WX    TMP DP  RH WIND       PRES   REMARKS
CHAMPAIGN      CLEAR     42  36  79 SW12      29.74F
DANVILLE*      PTCLDY    43  35  73 SW10      29.71S
RANTOUL*       CLEAR     43  37  79 SW12      29.72S
MATTOON        CLEAR     45  34  65 SW8       29.77F
PARIS*         PTCLDY    43  38  82 SW9       29.78S
$$

ILZ079-100>102-210600-
SOUTHWEST ILLINOIS

CITY           SKY/WX    TMP DP  RH WIND       PRES   REMARKS
ALTON          CLEAR     46  29  51 SW10      29.82F
BELLEVILLE     CLEAR     44  34  69 SW6       29.83F
CAHOKIA*       CLEAR     50  31  48 SW7       29.84S
SPARTA*        CLEAR     47  32  56 SW6       29.88S
$$

ILZ064>066-069>071-074>076-080>082-084>086-088>090-092>094-210600-
SOUTH-CENTRAL ILLINOIS

CITY           SKY/WX    TMP DP  RH WIND       PRES   REMARKS
CARBONDALE     CLEAR     46  35  65 SW6       29.89R
CAIRO*         CLEAR     52  40  62 SW5       29.91S
EFFINGHAM*     CLEAR     45  32  59 S8        29.82F
MARION         CLEAR     50  36  57 SW3       29.89S
MT. VERNON     CLEAR     43  34  70 SW6       29.86S
CENTRALIA*     CLEAR     42  35  74 SW7       29.84F
SALEM*         CLEAR     48  35  62 SW8       29.84S
METROPOLIS*    CLEAR     46  42  86 CALM      29.89S
$$

ILZ067-068-072-073-078-083-087-091-210600-
SOUTHEAST ILLINOIS

CITY           SKY/WX    TMP DP  RH WIND       PRES   REMARKS
LAWRENCEVILLE  CLEAR     43  36  76 SW10      29.83S
FLORA*         CLEAR     43  36  74 SW7       29.85R
FAIRFIELD*     PTCLDY    47  37  70 SW5       29.85R
HARRISBURG*    CLEAR     46  39  76 CALM      29.89S
ROBINSON*      CLEAR     44  37  74 SW9       29.83R
CARMI*         PTCLDY    46  36  68 SW8       29.86S
$$

ABBREVIATIONS USED IN REMARKS
   TC - TEMPERATURE IN CELSIUS
  WCI - WIND CHILL INDEX
   HX - HEAT INDEX
  VSB - VISIBILITY
$$




USA.gov is the U.S. government's official web portal to all federal, state and local government web resources and services.